Location: Wien
(48.2082°N, 16.3738°E)
Time: 10:06:47
(UTC+02:00)

Envisat - Visible Passes

Search period start: 23 October 2019 00:00
Search period end: 01 November 2019 23:00
Orbit: 764 x 766 km, 98.1° (Epoch: 23 October)

Date Brightness Start Highest point End Pass type
(mag) Time Alt. Az. Time Alt. Az. Time Alt. Az.
23 Oct 6.4 06:25:16 10° ENE 06:27:29 13° E 06:29:41 10° ESE visible
23 Oct 3.9 19:20:28 10° S 19:25:24 50° W 19:30:22 10° NNW visible
24 Oct 2.9 18:43:30 10° SSE 18:48:35 80° ENE 18:53:41 10° NNW visible
24 Oct 6.0 20:25:21 10° WSW 20:28:14 15° W 20:31:08 10° NW visible
25 Oct 5.9 06:49:27 10° NE 06:53:19 21° E 06:57:09 10° SE visible
25 Oct 4.9 19:46:36 10° SSW 19:51:04 30° W 19:55:33 10° NNW visible
26 Oct 3.5 19:09:04 10° S 19:14:06 63° W 19:19:09 10° NNW visible
27 Oct 3.0 17:32:19 10° SSE 17:37:20 65° ENE 17:42:23 10° N visible
27 Oct 5.7 19:13:18 10° SW 19:16:50 19° W 19:20:22 10° NW visible
28 Oct 6.1 05:38:35 10° NE 05:41:55 17° E 05:45:14 10° SE visible
28 Oct 4.5 18:35:01 10° SSW 18:39:43 37° W 18:44:27 10° NNW visible
29 Oct 3.2 17:57:44 10° S 18:02:48 78° WSW 18:07:55 10° NNW visible
29 Oct 6.2 19:41:24 10° W 19:42:42 11° W 19:43:59 10° WNW visible
30 Oct 3.1 17:21:11 10° SE 17:26:06 53° ENE 17:31:03 10° N visible
30 Oct 5.4 19:01:26 10° SW 19:05:26 23° W 19:09:27 10° NW visible
31 Oct 6.2 05:27:54 10° NE 05:30:30 14° E 05:33:06 10° ESE visible
31 Oct 4.1 18:23:31 10° S 18:28:23 46° W 18:33:18 10° NNW visible
01 Nov 3.0 17:46:27 10° SSE 17:51:32 86° ENE 17:56:39 10° NNW visible
01 Nov 6.0 19:28:41 10° WSW 19:31:16 14° W 19:33:50 10° NW visible
